Weather History for Phnom Penh, Cambodia

Change the Weather History Date:

Saturday, January 25, 2014

  Actual Average Record
Temperature  
Mean Temperature 72 °F -  
Max Temperature 86 °F 88 °F 93 °F (2002)
Min Temperature 59 °F 73 °F 59 °F (2014)
Cooling Degree Days 8    
Growing Degree Days 22 (Base 50)    
Moisture  
Dew Point 57 °F    
Average Humidity 51    
Maximum Humidity 73    
Minimum Humidity 31    
Precipitation  
Precipitation 0.00 in - - ()
Sea Level Pressure  
Sea Level Pressure 29.85 in    
Wind  
Wind Speed 4 mph ()    
Max Wind Speed 10 mph    
Max Gust Speed -    
Visibility 4.7 miles    
Events      
Averages and records for this station are not official NWS values.
T = Trace of Precipitation, MM = Missing Value Source: Averaged Metar Reports

Daily Weather History Graph

Daily Weather History Graph

Search for Another Location

Airport:

Trip Planner

Search our weather history database for the weather conditions in past years. The results will help you decide how hot, cold, wet, or windy it might be!

Date:

Astronomy

Jan. 25, 2014 Rise Set
Actual Time 6:25 AM ICT 6:00 PM ICT
Civil Twilight 6:03 AM ICT 6:22 PM ICT
Nautical Twilight 5:37 AM ICT 6:48 PM ICT
Astronomical Twilight 5:11 AM ICT 7:14 PM ICT
Moon 12:32 AM ICT (1/25) 12:31 PM ICT (1/25)
Length of Visible Light 12h 19m
Length of Day
11h 35m
Last Quarter, 39% of the Moon is Illuminated
Jan 25
Last Quarter
Jan 31
New
Feb 7
First Quarter
Feb 15
Full
Feb 23
Last Quarter

Hourly Weather History & Observations

Time (ICT) Temp. Heat Index Dew Point Humidity Pressure Visibility Wind Dir Wind Speed Gust Speed Precip Events Conditions
6:30 AM 66.2 °F - 57.2 °F 73% 29.89 in 4.3 mi Calm Calm - N/A   Haze
7:00 AM 64 °F - 56 °F 70% 29.96 in 1 mi Calm Calm - -   Mist
7:00 AM 68.0 °F - 57.2 °F 68% 29.89 in 3.1 mi SW 2.3 mph - N/A   Mist
7:30 AM 68.0 °F - 59.0 °F 73% 29.89 in 3.1 mi SW 2.3 mph - N/A   Mist
8:00 AM 69.8 °F - 59.0 °F 68% 29.89 in 3.1 mi SSW 4.6 mph - N/A   Mist
8:30 AM 73.4 °F - 60.8 °F 65% 29.92 in 3.7 mi SSW 4.6 mph - N/A   Haze
9:00 AM 73.4 °F - 64.4 °F 73% 29.92 in 4.3 mi South 8.1 mph - N/A   Haze
9:30 AM 75.2 °F - 64.4 °F 69% 29.92 in 5.6 mi South 10.4 mph - N/A   Unknown
10:00 AM 77.0 °F - 64.4 °F 65% 29.92 in 5.6 mi SE 8.1 mph - N/A   Partly Cloudy
10:30 AM 78.8 °F - 62.6 °F 57% 29.92 in 5.6 mi South 3.5 mph - N/A   Partly Cloudy
11:00 AM 80.6 °F 81.5 °F 60.8 °F 51% 29.89 in 5.6 mi SSW 4.6 mph - N/A   Partly Cloudy
11:30 AM 82.4 °F 82.9 °F 60.8 °F 48% 29.89 in 5.6 mi SE 5.8 mph - N/A   Partly Cloudy
12:00 PM 82.4 °F 82.5 °F 59.0 °F 45% 29.86 in 5.6 mi ESE 6.9 mph - N/A   Partly Cloudy
12:30 PM 84.2 °F 83.0 °F 55.4 °F 37% 29.86 in 5.6 mi WSW 2.3 mph - N/A   Scattered Clouds
1:00 PM 82.4 °F 82.0 °F 57.2 °F 42% 29.83 in 5.6 mi WSW 3.5 mph - N/A   Scattered Clouds
1:30 PM 82.4 °F 81.7 °F 55.4 °F 39% 29.80 in 5.6 mi SSE 4.6 mph - N/A   Scattered Clouds
2:00 PM 84.2 °F 83.0 °F 55.4 °F 37% 29.80 in 5.6 mi ESE 4.6 mph - N/A   Scattered Clouds
2:30 PM 84.2 °F 82.8 °F 53.6 °F 35% 29.77 in 5.6 mi NE 3.5 mph - N/A   Partly Cloudy
3:00 PM 86.0 °F 84.2 °F 53.6 °F 33% 29.77 in 5.6 mi ENE 5.8 mph - N/A   Partly Cloudy
3:30 PM 86.0 °F - 51.8 °F 31% 29.77 in 5.6 mi North 8.1 mph - N/A   Partly Cloudy
4:00 PM 86.0 °F - 51.8 °F 31% 29.77 in 5.6 mi NE 4.6 mph - N/A   Unknown
4:30 PM 84.2 °F - 51.8 °F 33% 29.77 in 5.6 mi NE 8.1 mph - N/A   Unknown
5:00 PM 84.2 °F - 51.8 °F 33% 29.80 in 5.6 mi ENE 5.8 mph - N/A   Unknown
5:30 PM 84.2 °F - 51.8 °F 33% 29.80 in 5.6 mi ENE 3.5 mph - N/A   Unknown
6:00 PM 80.6 °F - 51.8 °F 37% 29.80 in 5.6 mi ENE 4.6 mph - N/A   Unknown
6:30 PM 80.6 °F 80.3 °F 53.6 °F 39% 29.80 in 5.0 mi SSE 3.5 mph - N/A   Unknown
7:00 PM 78.8 °F - 55.4 °F 44% 29.83 in 4.3 mi ESE 2.3 mph - N/A   Unknown
7:30 PM 78.8 °F - 57.2 °F 47% 29.83 in 4.3 mi SSW 2.3 mph - N/A   Unknown
8:00 PM 77.0 °F - 59.0 °F 54% 29.86 in 4.3 mi Variable 1.2 mph - N/A   Unknown
8:30 PM 77.0 °F - 59.0 °F 54% 29.86 in 3.7 mi South 2.3 mph - N/A   Unknown
9:00 PM 77.0 °F - 59.0 °F 54% 29.86 in 3.7 mi SE 3.5 mph - N/A   Unknown
9:30 PM 75.2 °F - 60.8 °F 61% 29.86 in 4.3 mi SSW 3.5 mph - N/A   Unknown
10:00 PM 75.2 °F - 60.8 °F 61% 29.89 in 4.3 mi SSW 3.5 mph - N/A   Unknown
10:30 PM 75.2 °F - 59.0 °F 57% 29.89 in 4.3 mi SW 3.5 mph - N/A   Unknown
11:00 PM 75.2 °F - 59.0 °F 57% 29.89 in 4.3 mi WSW 6.9 mph - N/A   Unknown
11:30 PM 75.2 °F - 59.0 °F 57% 29.89 in 4.3 mi West 6.9 mph - N/A   Unknown